Location: Hokitika
(42.7170°S, 170.9670°E)
Time: 03:51:55
(UTC+13:00)

ISS - Pass Details

Date: 31 January 2019
Orbit: 411 x 421 km, 51.6° (Epoch: 21 October)

Event Time Altitude Azimuth Distance (km) Brightness Sun altitude
Exits shadow 03:19:50 - 82° (E) 2,088 0.0 -26.2°
Enters shadow 04:16:55 -68° 305° (NW) 12,254 3.6 -20.8°
Maximum altitude 04:53:50 48° 39° (NE) 563 -3.2 -16.3°
